AFL2182 URMM-UUEE

Flight info

Callsign AFL2182
Flight time N/A
Altitude 37000
Route URILU5L URILU R227 BEMES DCT VULFI DCT TUVGI/K0857F360 DCT EVZUN DCT ZIZAR DCT VAZLU DCT UZZID DCT NOKLI/K0845F370 N72 WGD G481 OBABI T619 LUGIL/K0839F380 T619 UMRAL/K0837F370 P163 LADIM/K0835F380 P163 GOLRI L736 OLOPI OLOPI3W
Aircraft A320/M-SDE3FGHIRWY/LB1

Departure

Time 2026-05-05 11:46
Airport Mineralnye Vody Airport (URMM)

Arrival

Time N/A
Airport Sheremetyevo International Airport (UUEE)
Time Latitude Longitude Altitude Speed Heading
2026-05-05 11:33 44.21696 43.09117 1051 ft 0 kts 212°
2026-05-05 11:34 44.21709 43.09128 1051 ft 2 kts 212°
2026-05-05 11:35 44.21722 43.09140 1051 ft 2 kts 212°
2026-05-05 11:35 44.21736 43.09151 1051 ft 2 kts 220°
2026-05-05 11:35 44.21746 43.09169 1051 ft 2 kts 268°
2026-05-05 11:35 44.21744 43.09191 1051 ft 2 kts 288°
2026-05-05 11:36 44.21739 43.09213 1051 ft 2 kts 294°
2026-05-05 11:36 44.21736 43.09223 1051 ft 0 kts 304°
2026-05-05 11:37 44.21737 43.09221 1051 ft 2 kts 305°
2026-05-05 11:38 44.21776 43.09153 1051 ft 4 kts 310°
2026-05-05 11:38 44.21793 43.09123 1051 ft 4 kts 307°
2026-05-05 11:38 44.21806 43.09097 1051 ft 3 kts 305°
2026-05-05 11:39 44.21818 43.09074 1051 ft 6 kts 306°
2026-05-05 11:39 44.21854 43.09004 1051 ft 9 kts 306°
2026-05-05 11:39 44.21883 43.08941 1051 ft 7 kts 302°
2026-05-05 11:39 44.21907 43.08888 1051 ft 6 kts 302°
2026-05-05 11:40 44.21944 43.08808 1051 ft 17 kts 302°
2026-05-05 11:40 44.22005 43.08663 1051 ft 17 kts 285°
2026-05-05 11:40 44.22053 43.08515 1051 ft 17 kts 302°
2026-05-05 11:40 44.22112 43.08381 1051 ft 16 kts 302°
2026-05-05 11:41 44.22180 43.08230 1051 ft 19 kts 301°
2026-05-05 11:41 44.22253 43.08063 1051 ft 21 kts 301°
2026-05-05 11:41 44.22333 43.07887 1051 ft 22 kts 304°
2026-05-05 11:41 44.22418 43.07701 1051 ft 23 kts 302°
2026-05-05 11:42 44.22508 43.07504 1051 ft 25 kts 302°
2026-05-05 11:42 44.22601 43.07297 1051 ft 26 kts 302°
2026-05-05 11:42 44.22689 43.07149 1051 ft 16 kts 340°
2026-05-05 11:42 44.22792 43.07115 1051 ft 15 kts 347°
2026-05-05 11:43 44.22898 43.07081 1051 ft 16 kts 347°
2026-05-05 11:43 44.22994 43.07058 1051 ft 11 kts
2026-05-05 11:43 44.23025 43.07135 1051 ft 9 kts 91°
2026-05-05 11:43 44.23024 43.07218 1051 ft 8 kts 91°
2026-05-05 11:44 44.23022 43.07284 1051 ft 6 kts 91°
2026-05-05 11:44 44.23021 43.07331 1052 ft 5 kts 94°
2026-05-05 11:44 44.23018 43.07378 1052 ft 5 kts 95°
2026-05-05 11:44 44.23039 43.07465 1052 ft 11 kts 50°
2026-05-05 11:45 44.23036 43.07515 1052 ft 0 kts 114°
2026-05-05 11:45 44.22956 43.07694 1050 ft 63 kts 122°
2026-05-05 11:46 44.22573 43.08546 1054 ft 140 kts 122°
2026-05-05 11:46 44.21961 43.09894 1365 ft 171 kts 122°
2026-05-05 11:46 44.21321 43.11290 2356 ft 173 kts 121°
2026-05-05 11:46 44.20653 43.12747 2738 ft 191 kts 121°
2026-05-05 11:47 44.19888 43.14440 3082 ft 216 kts 121°
2026-05-05 11:47 44.19055 43.16286 3485 ft 240 kts 121°
2026-05-05 11:47 44.18128 43.18338 4055 ft 257 kts 122°
2026-05-05 11:47 44.17154 43.20478 4885 ft 265 kts 122°
2026-05-05 11:48 44.15131 43.24906 6529 ft 278 kts 122°
2026-05-05 11:48 44.14083 43.27202 7317 ft 285 kts 122°
2026-05-05 11:48 44.13063 43.29587 8141 ft 290 kts 114°
2026-05-05 11:49 44.12569 43.32312 8920 ft 295 kts 91°
2026-05-05 11:49 44.12891 43.35119 9689 ft 297 kts 65°
2026-05-05 11:49 44.14030 43.37491 10412 ft 297 kts 41°
2026-05-05 11:49 44.15741 43.39257 10697 ft 318 kts 31°
2026-05-05 11:50 44.17667 43.40986 10916 ft 341 kts 30°
2026-05-05 11:50 44.19737 43.42811 11086 ft 363 kts 30°
2026-05-05 11:50 44.21913 43.44734 11545 ft 375 kts 30°
2026-05-05 11:50 44.24128 43.46708 12198 ft 380 kts 31°
2026-05-05 11:51 44.26361 43.48723 12868 ft 385 kts 31°
2026-05-05 11:51 44.28622 43.50777 13515 ft 390 kts 32°
2026-05-05 11:51 44.30880 43.52834 14106 ft 395 kts 32°
2026-05-05 11:51 44.33191 43.54937 14689 ft 398 kts 32°
2026-05-05 11:52 44.35520 43.57056 15271 ft 402 kts 32°
2026-05-05 11:52 44.37875 43.59198 15867 ft 405 kts 32°
2026-05-05 11:52 44.40252 43.61355 16439 ft 409 kts 32°
2026-05-05 11:52 44.42640 43.63524 16992 ft 412 kts 32°
2026-05-05 11:53 44.45059 43.65727 17550 ft 416 kts 32°
2026-05-05 11:53 44.47490 43.67949 18095 ft 419 kts 33°
2026-05-05 11:53 44.49942 43.70192 18582 ft 422 kts 33°
2026-05-05 11:53 44.52402 43.72447 19078 ft 424 kts 33°
2026-05-05 11:54 44.54875 43.74716 19552 ft 426 kts 33°
2026-05-05 11:54 44.57364 43.76998 20116 ft 426 kts 32°
2026-05-05 11:54 44.59843 43.79274 20700 ft 425 kts 33°
2026-05-05 11:54 44.62307 43.81538 21222 ft 426 kts 33°
2026-05-05 11:55 44.64752 43.83788 21683 ft 427 kts 33°
2026-05-05 11:55 44.67244 43.86084 22172 ft 428 kts 33°
2026-05-05 11:55 44.69740 43.88386 22625 ft 430 kts 33°
2026-05-05 11:55 44.72251 43.90700 23033 ft 432 kts 33°
2026-05-05 11:56 44.74772 43.93022 23449 ft 434 kts 33°
2026-05-05 11:56 44.77303 43.95358 23821 ft 436 kts 33°
2026-05-05 11:56 44.79850 43.97710 24175 ft 438 kts 34°
2026-05-05 11:56 44.82402 44.00074 24523 ft 440 kts 34°
2026-05-05 11:57 44.84964 44.02454 24863 ft 442 kts 34°
2026-05-05 11:57 44.87533 44.04844 25192 ft 444 kts 34°
2026-05-05 11:57 44.90115 44.07245 25574 ft 446 kts 34°
2026-05-05 11:57 44.92716 44.09663 25964 ft 448 kts 34°
2026-05-05 11:58 44.95328 44.12092 26302 ft 452 kts 35°
2026-05-05 11:58 44.97958 44.14547 26594 ft 454 kts 35°
2026-05-05 11:58 45.00603 44.17015 26897 ft 456 kts 35°
2026-05-05 11:58 45.03252 44.19487 27181 ft 457 kts 35°
2026-05-05 11:59 45.05910 44.21976 27530 ft 457 kts 36°
2026-05-05 11:59 45.08523 44.24424 27960 ft 456 kts 36°
2026-05-05 11:59 45.11164 44.26898 28386 ft 454 kts 36°
2026-05-05 11:59 45.13793 44.29366 28788 ft 454 kts 36°
2026-05-05 12:00 45.16421 44.31837 29187 ft 453 kts 36°
2026-05-05 12:00 45.19041 44.34302 29597 ft 452 kts 36°
2026-05-05 12:00 45.21662 44.36769 30020 ft 451 kts 36°
2026-05-05 12:00 45.24275 44.39237 30352 ft 450 kts 36°
2026-05-05 12:01 45.26878 44.41700 30675 ft 450 kts 36°
2026-05-05 12:01 45.29482 44.44165 31042 ft 448 kts 36°
2026-05-05 12:01 45.32074 44.46620 31411 ft 447 kts 36°
2026-05-05 12:01 45.34665 44.49074 31736 ft 447 kts 35°
2026-05-05 12:02 45.37254 44.51529 32042 ft 448 kts 35°
2026-05-05 12:02 45.39845 44.53986 32359 ft 448 kts 35°
2026-05-05 12:02 45.42434 44.56446 32682 ft 448 kts 35°
2026-05-05 12:02 45.45029 44.58915 32965 ft 448 kts 35°
2026-05-05 12:03 45.47624 44.61391 33264 ft 448 kts 35°
2026-05-05 12:03 45.50180 44.63835 33565 ft 449 kts 36°
2026-05-05 12:03 45.52768 44.66311 33861 ft 449 kts 36°
2026-05-05 12:03 45.55366 44.68793 34119 ft 449 kts 36°
2026-05-05 12:04 45.57966 44.71275 34336 ft 450 kts 36°
2026-05-05 12:04 45.60579 44.73773 34530 ft 452 kts 35°
2026-05-05 12:04 45.63191 44.76276 34733 ft 453 kts 35°
2026-05-05 12:04 45.65815 44.78796 34920 ft 455 kts 35°
2026-05-05 12:05 45.68442 44.81319 35119 ft 455 kts 36°
2026-05-05 12:05 45.71075 44.83850 35318 ft 456 kts 36°
2026-05-05 12:05 45.73710 44.86384 35507 ft 458 kts 35°
2026-05-05 12:05 45.76356 44.88931 35700 ft 458 kts 35°
2026-05-05 12:06 45.79003 44.91489 35873 ft 460 kts 35°
2026-05-05 12:06 45.81657 44.94059 36066 ft 460 kts 35°
2026-05-05 12:06 45.84302 44.96623 36318 ft 459 kts 35°
2026-05-05 12:06 45.86950 44.99190 36519 ft 459 kts 35°
2026-05-05 12:07 45.89602 45.01759 36701 ft 460 kts 35°
2026-05-05 12:07 45.92252 45.04333 36885 ft 461 kts 35°
2026-05-05 12:07 45.94875 45.06886 37051 ft 461 kts 35°
2026-05-05 12:07 45.97535 45.09478 37210 ft 462 kts 35°
2026-05-05 12:08 46.00192 45.12072 37381 ft 463 kts 35°
2026-05-05 12:08 46.02862 45.14680 37536 ft 464 kts 35°
2026-05-05 12:08 46.05535 45.17294 37682 ft 464 kts 35°
2026-05-05 12:08 46.08211 45.19916 37860 ft 465 kts 35°
2026-05-05 12:09 46.13587 45.25186 37959 ft 470 kts 35°
2026-05-05 12:09 46.19005 45.30499 37958 ft 471 kts 35°
2026-05-05 12:10 46.24403 45.35819 37958 ft 471 kts 35°
2026-05-05 12:10 46.30252 45.39944 37955 ft 472 kts 11°
2026-05-05 12:11 46.33515 45.40343 37963 ft 472 kts 356°
2026-05-05 12:11 46.36752 45.39543 37951 ft 475 kts 346°
2026-05-05 12:11 46.43225 45.37258 37957 ft 482 kts 346°
2026-05-05 12:12 46.49762 45.34966 37956 ft 484 kts 346°
2026-05-05 12:12 46.56270 45.32709 37959 ft 484 kts 346°
2026-05-05 12:13 46.62819 45.30425 37966 ft 484 kts 346°
2026-05-05 12:13 46.69368 45.28137 37970 ft 484 kts 346°
2026-05-05 12:14 46.75917 45.25846 37977 ft 484 kts 346°
2026-05-05 12:14 46.82479 45.23542 37984 ft 484 kts 347°
2026-05-05 12:15 46.89030 45.21232 37979 ft 485 kts 346°
2026-05-05 12:15 46.95586 45.18912 37984 ft 485 kts 346°
2026-05-05 12:16 47.02153 45.16587 37989 ft 485 kts 346°
2026-05-05 12:16 47.08711 45.14259 37987 ft 485 kts 346°
2026-05-05 12:17 47.15275 45.11925 37991 ft 485 kts 346°
2026-05-05 12:17 47.21835 45.09584 37986 ft 485 kts 346°
2026-05-05 12:18 47.28353 45.07256 37988 ft 485 kts 346°
2026-05-05 12:18 47.34904 45.04913 37992 ft 484 kts 346°
2026-05-05 12:19 47.41448 45.02556 37995 ft 484 kts 346°
2026-05-05 12:19 47.47986 45.00187 37992 ft 484 kts 346°
2026-05-05 12:20 47.54524 44.97830 37993 ft 483 kts 346°
2026-05-05 12:20 47.61053 44.95467 37985 ft 483 kts 346°
2026-05-05 12:21 47.67537 44.93110 37986 ft 483 kts 347°
2026-05-05 12:21 47.74067 44.90732 37991 ft 483 kts 346°
2026-05-05 12:22 47.80601 44.88349 37994 ft 483 kts 347°
2026-05-05 12:22 47.87119 44.85964 37994 ft 482 kts 347°
2026-05-05 12:23 47.93632 44.83562 37990 ft 482 kts 347°
2026-05-05 12:23 48.00145 44.81167 37996 ft 482 kts 347°
2026-05-05 12:24 48.06650 44.78772 37992 ft 481 kts 347°
2026-05-05 12:24 48.13148 44.76374 37998 ft 481 kts 347°
2026-05-05 12:25 48.19643 44.73973 37994 ft 480 kts 347°
2026-05-05 12:25 48.26093 44.71569 37995 ft 480 kts 347°
2026-05-05 12:26 48.32621 44.69131 37993 ft 480 kts 347°
2026-05-05 12:26 48.39106 44.66705 38000 ft 480 kts 347°
2026-05-05 12:27 48.45585 44.64278 37999 ft 480 kts 347°
2026-05-05 12:27 48.51858 44.61110 38003 ft 480 kts 333°
2026-05-05 12:28 48.57469 44.55661 38005 ft 480 kts 326°
2026-05-05 12:28 48.62986 44.49972 38012 ft 480 kts 326°
2026-05-05 12:29 48.68500 44.44287 38018 ft 480 kts 326°
2026-05-05 12:29 48.74017 44.38574 38016 ft 480 kts 326°
2026-05-05 12:30 48.79742 44.33444 38014 ft 478 kts 338°
2026-05-05 12:30 48.85963 44.29915 38019 ft 477 kts 340°
2026-05-05 12:31 48.91178 44.26967 38019 ft 477 kts 340°
2026-05-05 12:31 48.97398 44.23435 38017 ft 477 kts 340°
2026-05-05 12:32 49.03616 44.19897 38013 ft 476 kts 340°
2026-05-05 12:32 49.09779 44.16384 38010 ft 476 kts 340°
2026-05-05 12:33 49.15965 44.12841 38003 ft 475 kts 340°
2026-05-05 12:33 49.22155 44.09300 37996 ft 475 kts 340°
2026-05-05 12:34 49.28343 44.05751 38003 ft 474 kts 340°
2026-05-05 12:34 49.34506 44.02194 38000 ft 473 kts 340°
2026-05-05 12:35 49.40667 43.98628 38000 ft 473 kts 340°
2026-05-05 12:35 49.46821 43.95063 37998 ft 473 kts 340°
2026-05-05 12:36 49.52903 43.91205 37993 ft 473 kts 332°
2026-05-05 12:36 49.58686 43.86373 37995 ft 473 kts 332°
2026-05-05 12:37 49.64470 43.81522 37995 ft 473 kts 332°
2026-05-05 12:37 49.70255 43.76661 37998 ft 473 kts 331°
2026-05-05 12:38 49.76034 43.71783 38013 ft 473 kts 331°
2026-05-05 12:38 49.81812 43.66902 38003 ft 473 kts 331°
2026-05-05 12:39 49.87550 43.62051 37997 ft 473 kts 331°
2026-05-05 12:39 49.93320 43.57157 37997 ft 472 kts 331°
2026-05-05 12:40 49.99079 43.52252 38009 ft 472 kts 331°
2026-05-05 12:40 50.04825 43.47324 37996 ft 471 kts 331°
2026-05-05 12:41 50.10570 43.42393 38000 ft 471 kts 331°
2026-05-05 12:41 50.16311 43.37455 38000 ft 471 kts 331°
2026-05-05 12:42 50.22047 43.32506 38002 ft 471 kts 331°
2026-05-05 12:42 50.27744 43.27597 37996 ft 470 kts 331°
2026-05-05 12:43 50.33471 43.22638 37996 ft 471 kts 330°
2026-05-05 12:43 50.39194 43.17668 37996 ft 471 kts 330°
2026-05-05 12:44 50.44922 43.12676 38001 ft 471 kts 330°
2026-05-05 12:44 50.50643 43.07684 38002 ft 471 kts 330°
2026-05-05 12:45 50.56366 43.02668 37997 ft 471 kts 330°
2026-05-05 12:45 50.62079 42.97643 37994 ft 470 kts 330°
2026-05-05 12:46 50.67781 42.92608 37990 ft 469 kts 330°
2026-05-05 12:46 50.73799 42.88655 37985 ft 469 kts 340°
2026-05-05 12:47 50.79956 42.85245 37987 ft 469 kts 340°
2026-05-05 12:47 50.86117 42.81817 37984 ft 469 kts 340°
2026-05-05 12:48 50.92270 42.78377 37981 ft 469 kts 340°
2026-05-05 12:48 50.98413 42.74919 37988 ft 468 kts 340°
2026-05-05 12:49 51.04550 42.71459 37979 ft 468 kts 340°
2026-05-05 12:49 51.10687 42.67992 37980 ft 468 kts 340°
2026-05-05 12:50 51.16820 42.64525 37982 ft 468 kts 340°
2026-05-05 12:50 51.22948 42.61060 37982 ft 467 kts 340°
2026-05-05 12:51 51.29076 42.57577 37967 ft 467 kts 340°
2026-05-05 12:51 51.35198 42.54082 37974 ft 467 kts 340°
2026-05-05 12:52 51.41312 42.50569 37969 ft 467 kts 340°
2026-05-05 12:52 51.47441 42.47050 37970 ft 467 kts 339°
2026-05-05 12:53 51.53526 42.43552 37968 ft 468 kts 340°
2026-05-05 12:53 51.59656 42.40022 37972 ft 468 kts 339°
2026-05-05 12:54 51.68844 42.34705 37962 ft 468 kts 339°
2026-05-05 12:55 51.74969 42.31141 37963 ft 468 kts 339°
2026-05-05 12:55 51.81087 42.27561 37966 ft 468 kts 339°
2026-05-05 12:56 51.87212 42.23961 37968 ft 468 kts 339°
2026-05-05 12:56 51.93341 42.20369 37964 ft 468 kts 339°
2026-05-05 12:57 51.99415 42.16792 37963 ft 468 kts 339°
2026-05-05 12:57 52.05533 42.13191 37965 ft 467 kts 339°
2026-05-05 12:58 52.11649 42.09576 37962 ft 468 kts 340°
2026-05-05 12:58 52.17799 42.06130 37962 ft 468 kts 340°
2026-05-05 12:59 52.23981 42.02797 37958 ft 467 kts 341°
2026-05-05 12:59 52.30144 41.99443 37950 ft 467 kts 340°
2026-05-05 13:00 52.39536 41.95686 37945 ft 468 kts 357°
2026-05-05 13:01 52.52551 41.96328 37943 ft 468 kts
2026-05-05 13:01 52.59056 41.96687 37939 ft 468 kts
2026-05-05 13:02 52.65562 41.96900 37931 ft 466 kts 354°
2026-05-05 13:02 52.71816 41.94439 37930 ft 462 kts 334°
2026-05-05 13:03 52.77202 41.88800 37921 ft 459 kts 319°
2026-05-05 13:03 52.82152 41.82137 37928 ft 459 kts 319°
2026-05-05 13:04 52.87095 41.75449 37927 ft 459 kts 319°
2026-05-05 13:04 52.92032 41.68769 37927 ft 459 kts 320°
2026-05-05 13:05 52.96978 41.62071 37923 ft 459 kts 319°
2026-05-05 13:05 53.01910 41.55341 37925 ft 459 kts 319°
2026-05-05 13:06 53.06831 41.48590 37930 ft 458 kts 319°
2026-05-05 13:06 53.11747 41.41837 37933 ft 458 kts 319°
2026-05-05 13:07 53.16655 41.35089 37928 ft 458 kts 319°
2026-05-05 13:07 53.21659 41.28534 37936 ft 459 kts 327°
2026-05-05 13:08 53.27523 41.24329 37929 ft 461 kts 341°
2026-05-05 13:08 53.33626 41.21229 37920 ft 461 kts 341°
2026-05-05 13:09 53.39770 41.18084 37915 ft 462 kts 341°
2026-05-05 13:09 53.45913 41.14933 37915 ft 462 kts 341°
2026-05-05 13:10 53.52063 41.11769 37919 ft 462 kts 341°
2026-05-05 13:10 53.58207 41.08606 37917 ft 462 kts 341°
2026-05-05 13:11 53.64323 41.05310 37913 ft 460 kts 335°
2026-05-05 13:11 53.67136 41.02809 37910 ft 456 kts 324°
2026-05-05 13:11 53.69614 40.99519 37901 ft 453 kts 314°
2026-05-05 13:12 53.73329 40.91064 37893 ft 448 kts 294°
2026-05-05 13:12 53.75839 40.81438 37898 ft 448 kts 292°
2026-05-05 13:13 53.78317 40.71835 37894 ft 448 kts 292°
2026-05-05 13:13 53.80797 40.62155 37890 ft 449 kts 292°
2026-05-05 13:14 53.83266 40.52458 37890 ft 449 kts 292°
2026-05-05 13:14 53.85735 40.42726 37887 ft 449 kts 292°
2026-05-05 13:15 53.88203 40.32993 37900 ft 449 kts 291°
2026-05-05 13:15 53.90642 40.23316 37900 ft 448 kts 291°
2026-05-05 13:16 53.93103 40.13578 37898 ft 448 kts 291°
2026-05-05 13:16 53.95547 40.03830 37893 ft 449 kts 291°
2026-05-05 13:17 53.97983 39.94073 37897 ft 448 kts 291°
2026-05-05 13:17 54.00404 39.84315 37903 ft 448 kts 291°
2026-05-05 13:18 54.02809 39.74607 37899 ft 447 kts 291°
2026-05-05 13:18 54.05174 39.65031 37893 ft 447 kts 291°
2026-05-05 13:19 54.07567 39.55275 37890 ft 446 kts 291°
2026-05-05 13:19 54.09954 39.45516 37887 ft 446 kts 291°
2026-05-05 13:20 54.12323 39.35738 37889 ft 446 kts 291°
2026-05-05 13:20 54.14687 39.25944 37888 ft 446 kts 290°
2026-05-05 13:21 54.16643 39.17803 37884 ft 446 kts 290°
2026-05-05 13:21 54.18992 39.08003 37881 ft 446 kts 291°
2026-05-05 13:22 54.21344 38.98181 37873 ft 446 kts 290°
2026-05-05 13:22 54.23689 38.88360 37885 ft 446 kts 290°
2026-05-05 13:23 54.26045 38.78556 37887 ft 445 kts 291°
2026-05-05 13:23 54.28401 38.68755 37881 ft 445 kts 291°
2026-05-05 13:24 54.30756 38.58948 37880 ft 445 kts 291°
2026-05-05 13:24 54.33112 38.49128 37875 ft 445 kts 291°
2026-05-05 13:25 54.35469 38.39343 37892 ft 443 kts 291°
2026-05-05 13:25 54.37827 38.29572 37893 ft 443 kts 290°
2026-05-05 13:26 54.40180 38.19805 37889 ft 443 kts 290°
2026-05-05 13:26 54.42517 38.10096 37894 ft 443 kts 290°
2026-05-05 13:27 54.44875 38.00297 37892 ft 443 kts 290°
2026-05-05 13:27 54.47230 37.90538 37910 ft 441 kts 290°
2026-05-05 13:28 54.49584 37.80792 37912 ft 441 kts 290°
2026-05-05 13:28 54.51933 37.71059 37909 ft 441 kts 290°
2026-05-05 13:29 54.54270 37.61368 37907 ft 441 kts 290°
2026-05-05 13:29 54.56544 37.51923 37909 ft 441 kts 290°
2026-05-05 13:30 54.58910 37.42183 37921 ft 439 kts 290°
2026-05-05 13:30 54.61278 37.32466 37919 ft 439 kts 290°